STARLINK-2582, 48460

Orbit data source: Space-Track

STARLINK-2582, 48460 is a payload satellite owned by SpaceX/Seattle (US) in LEO that was launched on Sun, 09 May 2021 UTC via an FALCON 9 launch vehicle from the Air Force Eastern Test Range (AFETR). Payload-class satellites include a variety of spacecraft equipped with specific instruments for various scientific and technological missions. These include communications satellites like Starlink; space stations such as the ISS; scientific satellites like the Hubble; Earth observation satellites from companies like Planet Labs, Umbra, and HawkEye 360; GPS; miniature CubeSats for education and research; and military/defense satellites.

Loading next visibility...
Identifier
48460, 2021-040AJ
Orbit
LEO
Country
Flag of USUS
Related business
Manufacturer
SpaceX/Seattle
Mission
Partially operational Commercial Communications
Bus & Motor
STARLINK, Unknown motor
Mass
260 kg wet, ~248 kg dry
Launch date (UTC)
2021-05-09 (5 years ago)
Launch vehicle
FALCON 9
Launch site
Air Force Eastern Test Range (AFETR)
Object type
Payload
Rocket body
Debris
Shape & HBR
Box + 1 Pan, 10.1 m
Radar Cross Section
13.562 m², Large (>1 m²)

Expand to show TLE details & history
Last TLE update: 2 days ago

TLE from 2 days ago
0 STARLINK-2582
1 48460U 21040AJ  26171.41668980  .00080370  00000-0  40662-3 0  9997
2 48460  53.0475 344.2279 0001244 201.6280 299.2043 15.80887984  6024
Epoch: 2026-06-20T10:00Z
TLE epoch observation values (Epoch: 2026-06-20T10:00:01.998Z)
Latitude
30.41912°
Longitude
79.53551°
Altitude
329.277 km
Speed
7.715 km/s
True Right ascension
09h 12m 42s
True Declination
30° 15' 35"
Sunlit
Object was in daylight at epoch
Visualization orbit readout
Latitude
Unknown
Longitude
Unknown
Altitude
Unknown
Speed
Unknown
Apparent Right ascension
Unknown
Apparent Declination
Unknown
Sunlit
N/A
Visualization observer readout
Local Sidereal Time
21:25:10
Azimuth
Unknown
Elevation
Unknown
Doppler factor
Unknown
Orbital elements
Apogee altitude
329.043 km
Perigee altitude
327.374 km
Semi-major axis
6,706.346 km
Eccentricity
0.00012
Inclination
53.0475°
RAAN
344.2279°
Arg. of periapsis
201.628°
True anomaly
299.19186°
Mean anomaly
299.2043°
Eccentric anomaly
299.19808°
Mean motion
3.95198 °/min
Orbital period
91.09 mins
BSTAR
0.00040662
Loading maneuver chart data...
Computing Atmospheric mass density...

Documentation

Showing up to 5 results
|